Regional Weather Roundup
Issued by NWS

Home | Current Version | Previous Version | Text Only | Print | Product List | Glossary On
Versions: 1 2 3 4 5 6 7 8 9 10 11 12 13 14 15 16 17 18 19 20 21 22 23 24 25 26 27 28 29 30 31 32 33 34 35 36 37 38 39 40 41 42 43 44 45 46 47 48 49 50
000
ASUS44 KBMX 201110
RWRAL

ALABAMA REGIONAL WEATHER ROUNDUP
NATIONAL WEATHER SERVICE BIRMINGHAM AL
600 AM CDT SAT SEP 20 2014

NOTE: "FAIR" INDICATES FEW OR NO CLOUDS BELOW 12,000 FEET
WITH NO SIGNIFICANT WEATHER AND/OR OBSTRUCTIONS TO VISIBILITY.

THE REMARK "TC" DENOTES TEMPERATURE IN DEGREES CELSIUS.

ALZ001>011-014-016>018-020-201200-
NORTH ALABAMA

CITY           SKY/WX    TMP DP  RH WIND       PRES   REMARKS
MUSCLE SHOALS  CLEAR     68  63  84 E3        30.10R
HUNTSVILLE     CLEAR     70  63  78 SE9       30.10R
DECATUR        CLEAR     67  64  90 E3        30.11R
HALEYVILLE     FAIR      66  65  97 E7        30.12R
GADSDEN        CLEAR     64  61  88 NE6       30.12R
$$

ALZ012-013-022-023-030>036-040>044-201200-
WEST CENTRAL ALABAMA

CITY           SKY/WX    TMP DP  RH WIND       PRES   REMARKS
TUSCALOOSA     CLEAR     70  65  84 E5        30.06R
$$

ALZ015-024>027-033>036-040>044-201200-
CENTRAL ALABAMA

CITY           SKY/WX    TMP DP  RH WIND       PRES   REMARKS
BIRMINGHAM     CLEAR     68  64  87 NE3       30.10S
MONTGOMERY     CLEAR     70  65  84 E6        30.05R
SHELBY CO ARPT CLEAR     66  65  96 VRB3      30.08R
MAXWELL AFB    CLEAR     69  67  92 NE7       30.05R
GREENVILLE     CLOUDY    68  66  93 E9        30.03R
$$

ALZ019-021-028-029-037-038-045>048-201200-
EAST CENTRAL ALABAMA

CITY           SKY/WX    TMP DP  RH WIND       PRES   REMARKS
ANNISTON       CLEAR     67  64  90 E6        30.10S
ALEXANDER CITY CLOUDY    69  66  93 E3        30.08S
AUBURN         MOCLDY    64  61  88 NE10      30.11S
$$

ALZ051>064-201200-
SOUTHWEST ALABAMA

CITY           SKY/WX    TMP DP  RH WIND       PRES   REMARKS
MOBILE         CLEAR     68  67  96 NE6       29.99R
BROOKLEY FIELD CLEAR     74  68  81 E16       29.98S
EVERGREEN      CLEAR     68  66  93 CALM      30.02R
$$

ALZ049-050-065>069-201200-
SOUTHEAST ALABAMA

CITY           SKY/WX    TMP DP  RH WIND       PRES   REMARKS
DOTHAN         CLOUDY    69  67  93 NE7       30.06R
OZARK          CLOUDY    69  67  94 NE10      30.02R
TROY           CLOUDY    69  66  90 E8        30.05R
EUFAULA        CLOUDY    71  66  84 CALM      30.05R
$$


USA.gov is the U.S. government's official web portal to all federal, state and local government web resources and services.